This demonstration page uses our WeatherBlox Daily Observations layout. Learn more.

Left ArrowRight Arrow

38.80484, -77.04692

Hourly Observations for November 30, 2015

Temp ( °F °C ) Dew Point ( °F °C ) Humidity (%) Winds ( mph kmh ) Pressure ( in mb ) Visibility ( mi km ) Precip ( " mm )
12:52 am 00:52 Cloudy 44 6.7 33 0.6 65 65 NNE 12 19 30.33 1027 10 16 0.00 0.00
1:52 am 01:52 Cloudy 44 6.7 31 -0.6 60 60 NNE 14 22 30.35 1028 10 16 0.00 0.00
2:52 am 02:52 Cloudy 43 6.1 30 -1.1 60 60 NNE 14 22 30.35 1028 10 16 0.00 0.00
3:52 am 03:52 Cloudy 42 5.6 30 -1.1 62 62 NE 12 19 30.34 1028 10 16 0.00 0.00
4:52 am 04:52 Cloudy 42 5.6 30 -1.1 62 62 NNE 10 17 30.35 1028 10 16 0.00 0.00
5:52 am 05:52 Cloudy 41 5 30 -1.1 65 65 NNE 13 20 30.36 1028 10 16 0.00 0.00
6:52 am 06:52 Cloudy with Drizzle 41 5 30 -1.1 65 65 NNE 12 19 30.36 1028 10 16 0.00 0.03
7:52 am 07:52 Cloudy with Light Rain 41 5 32 0 70 70 NNE 13 20 30.38 1029 9 14 0.00 0.03
8:52 am 08:52 Cloudy with Light Rain 39 3.9 33 0.6 79 79 NE 9 15 30.38 1029 8 13 0.01 0.25
9:00 am 09:00 Cloudy with Light Rain 39 4 34 1 81 81 NNE 9 15 30.39 1029 10 16 0.00 0.00
9:36 am 09:36 Cloudy with Light Rain 39 3.9 34 1.1 82 82 NE 9 15 30.39 1029 3 4 0.00 0.03
9:38 am 09:38 Cloudy with Light Rain 39 4 34 1 81 81 NNE 10 17 30.39 1029 3 5 0.00 0.00
9:52 am 09:52 Cloudy with Light Rain 39 3.9 35 1.7 86 86 NNE 9 15 30.39 1029 4 6 0.01 0.25
10:52 am 10:52 Cloudy with Light Rain 39 3.9 35 1.7 86 86 NNE 9 15 30.38 1029 5 8 0.01 0.25
11:52 am 11:52 Cloudy with Light Rain 40 4.4 36 2.2 86 86 NE 10 17 30.35 1028 7 11 0.01 0.25
12:52 pm 12:52 Cloudy with Light Rain 41 5 36 2.2 82 82 NE 13 20 30.33 1027 8 13 0.00 0.03
1:20 pm 13:20 Cloudy with Light Rain 39 4 37 3 93 93 N 14 22 30.33 1027 4 6 0.00 0.00
1:27 pm 13:27 Cloudy with Light Rain 41 5 37 2.8 86 86 N 13 20 30.33 1027 3 5 0.01 0.25
1:47 pm 13:47 Cloudy with Light Rain 39 4 37 3 93 93 N 13 20 30.33 1027 2 3 0.01 0.25
1:52 pm 13:52 Cloudy with Light Rain 40 4.4 38 3.3 93 93 N 13 20 30.32 1027 2 3 0.01 0.25
2:00 pm 14:00 Cloudy with Light Rain 41 5 37 3 87 87 N 10 17 30.33 1027 3 4 0.00 0.00
2:13 pm 14:13 Cloudy with Light Rain 40 4.4 38 3.3 93 93 N 12 19 30.33 1027 2 3 0.01 0.25
2:37 pm 14:37 Cloudy with Light Rain 41 5 39 3.9 93 93 NNE 9 15 30.33 1027 2 3 0.02 0.51
2:52 pm 14:52 Cloudy with Light Rain 41 5 39 3.9 93 93 NNE 10 17 30.32 1027 2 3 0.03 0.76
3:04 pm 15:04 Cloudy with Light Rain 41 5 39 4 93 93 NNE 10 17 30.33 1027 3 4 0.00 0.00
3:12 pm 15:12 Cloudy with Light Rain 41 5 39 4 93 93 NNE 9 15 30.33 1027 3 5 0.00 0.00
3:26 pm 15:26 Cloudy with Light Rain 41 5 39 3.9 93 93 NNE 10 17 30.30 1026 4 6 0.02 0.51
3:43 pm 15:43 Cloudy with Light Rain 41 5 39 3.9 93 93 NNE 10 17 30.30 1026 5 8 0.02 0.51
3:52 pm 15:52 Cloudy with Light Rain 41 5 39 3.9 93 93 NE 9 15 30.30 1026 4 6 0.02 0.51
4:52 pm 16:52 Cloudy with Light Rain 42 5.6 40 4.4 92 92 NNE 10 17 30.30 1026 5 8 0.02 0.51
5:52 pm 17:52 Cloudy with Light Rain 43 6.1 41 5 93 93 NNE 8 13 30.29 1026 6 10 0.01 0.25
6:17 pm 18:17 Cloudy with Light Rain 44 6.7 42 5.6 93 93 NNE 9 15 30.30 1026 8 13 0.00 0.03
6:52 pm 18:52 Cloudy 44 6.7 42 5.6 93 93 NNE 10 17 30.28 1026 9 14 0.01 0.25
7:47 pm 19:47 Cloudy with Mist and Fog 45 7 43 6 93 93 NNE 9 15 30.27 1025 5 8 0.00 0.00
7:52 pm 19:52 Cloudy with Drizzle 44 6.7 42 5.6 93 93 NNE 8 13 30.27 1025 5 8 0.00 0.03
8:23 pm 20:23 Cloudy with Light Rain 45 7.2 43 6.1 93 93 NNE 6 9 30.27 1025 5 8 0.00 0.03
8:52 pm 20:52 Cloudy with Light Rain 45 7.2 43 6.1 93 93 N 8 13 30.27 1025 3 5 0.00 0.03
8:57 pm 20:57 Cloudy with Light Rain 45 7.2 43 6.1 93 93 N 9 15 30.27 1025 3 4 0.01 0.25
9:03 pm 21:03 Cloudy with Light Rain 45 7 43 6 93 93 N 7 11 30.27 1025 3 4 0.00 0.00
9:45 pm 21:45 Cloudy with Light Rain 44 6.7 43 6.1 96 96 NNE 7 11 30.24 1024 3 5 0.03 0.76
9:52 pm 21:52 Cloudy with Light Rain 44 6.7 43 6.1 96 96 NNE 7 11 30.24 1024 3 5 0.03 0.76
10:47 pm 22:47 Cloudy with Drizzle 45 7 43 6 93 93 N 6 9 30.24 1024 3 4 0.01 0.25
10:52 pm 22:52 Cloudy with Drizzle 45 7.2 43 6.1 93 93 NNE 6 9 30.22 1024 3 4 0.01 0.25
11:04 pm 23:04 Cloudy with Drizzle 45 7 43 6 93 93 N 7 11 30.24 1024 3 5 0.00 0.00
11:15 pm 23:15 Cloudy with Drizzle 45 7.2 43 6.1 93 93 N 7 11 30.21 1023 3 4 0.01 0.25
11:22 pm 23:22 Cloudy with Drizzle 45 7 43 6 93 93 N 6 9 30.21 1023 3 5 0.00 0.00
11:31 pm 23:31 Cloudy with Drizzle 45 7.2 44 6.7 97 97 N 6 9 30.21 1023 3 4 0.01 0.25
11:52 pm 23:52 Cloudy with Light Rain 45 7.2 44 6.7 97 97 N 6 9 30.21 1023 3 5 0.02 0.51

Powered by AerisWeather